Time,TemperatureF,DewpointF,PressureIn,WindDirection,WindDirectionDegrees,WindSpeedMPH,WindSpeedGustMPH,Humidity,HourlyPrecipIn,Conditions,Clouds,dailyrainin,SoftwareType,DateUTC
2013-06-23 00:00:00,39.7,0.9,30.11,NNW,338,0.0,0.0,19,0.00,,SKC,0.00,VWS V14.00,2013-06-23 04:00:00,
2013-06-23 00:20:00,42.6,3.3,30.12,NNW,338,0.0,0.0,19,0.00,,SKC,0.00,VWS V14.00,2013-06-23 04:20:00,
2013-06-23 00:40:00,51.6,10.7,30.12,NNW,338,0.0,0.0,19,0.00,,SKC,0.00,VWS V14.00,2013-06-23 04:40:00,
2013-06-23 01:01:00,57.6,15.6,30.13,NNW,338,0.0,0.0,19,0.00,,SKC,0.00,VWS V14.00,2013-06-23 05:01:00,
2013-06-23 01:40:00,66.9,23.4,30.11,NNW,338,0.0,0.0,19,0.00,,SKC,0.00,VWS V14.00,2013-06-23 05:40:00,
2013-06-23 02:00:00,69.3,25.3,30.11,NNW,338,0.0,0.0,19,0.00,,SKC,0.00,VWS V14.00,2013-06-23 06:00:00,
2013-06-23 02:20:00,71.2,26.9,30.10,NNW,338,0.0,0.0,19,0.00,,SKC,0.00,VWS V14.00,2013-06-23 06:20:00,
2013-06-23 02:40:00,71.8,27.3,30.08,NNW,338,0.0,0.0,19,0.00,,SKC,0.00,VWS V14.00,2013-06-23 06:40:00,
2013-06-23 03:00:00,71.6,27.2,30.08,NNW,338,0.0,0.0,19,0.00,,SKC,0.00,VWS V14.00,2013-06-23 07:00:00,
2013-06-23 03:20:00,71.1,26.8,30.07,NNW,338,0.0,0.0,19,0.00,,SKC,0.00,VWS V14.00,2013-06-23 07:20:00,
2013-06-23 03:40:00,70.5,26.3,30.07,NNW,338,0.0,0.0,19,0.00,,SKC,0.00,VWS V14.00,2013-06-23 07:40:00,
2013-06-23 04:00:00,70.2,26.0,30.07,NNW,338,0.0,0.0,19,0.00,,SKC,0.00,VWS V14.00,2013-06-23 08:00:00,
2013-06-23 04:20:00,70.0,25.9,30.07,NNW,338,0.0,0.0,19,0.00,,SKC,0.00,VWS V14.00,2013-06-23 08:20:00,
2013-06-23 05:20:00,68.7,24.8,30.09,East,90,0.0,0.0,19,0.00,,SKC,0.00,VWS V14.00,2013-06-23 09:20:00,
2013-06-23 05:40:00,67.8,24.1,30.10,East,90,0.0,0.0,19,0.00,,SKC,0.00,VWS V14.00,2013-06-23 09:40:00,
2013-06-23 06:00:00,67.1,23.5,30.11,East,90,0.0,0.0,19,0.00,,SKC,0.00,VWS V14.00,2013-06-23 10:00:00,
2013-06-23 06:20:00,66.7,23.2,30.11,East,90,0.0,0.0,19,0.00,,SKC,0.00,VWS V14.00,2013-06-23 10:20:00,
2013-06-23 06:40:00,66.4,22.9,30.12,East,90,0.0,0.0,19,0.00,,SKC,0.00,VWS V14.00,2013-06-23 10:40:00,
2013-06-23 07:00:00,66.6,23.0,30.13,East,90,0.0,0.0,19,0.00,,SKC,0.00,VWS V14.00,2013-06-23 11:00:00,
2013-06-23 07:40:00,68.4,24.5,30.14,East,90,0.0,0.0,19,0.00,,SKC,0.00,VWS V14.00,2013-06-23 11:40:00,
2013-06-23 08:00:00,70.2,26.0,30.15,NE,45,0.0,0.0,19,0.00,,SKC,0.00,VWS V14.00,2013-06-23 12:00:00,
2013-06-23 08:20:00,72.7,28.1,30.15,NNW,338,0.0,0.0,19,0.00,,SKC,0.00,VWS V14.00,2013-06-23 12:20:00,
2013-06-23 08:40:00,74.5,29.6,30.16,ENE,68,0.0,0.0,19,0.00,,SKC,0.00,VWS V14.00,2013-06-23 12:40:00,
2013-06-23 09:20:00,78.3,32.7,30.17,SE,135,0.0,0.0,19,0.00,,SKC,0.00,VWS V14.00,2013-06-23 13:20:00,
2013-06-23 10:00:00,81.9,35.6,30.16,NNE,22,0.0,0.0,19,0.00,,SKC,0.00,VWS V14.00,2013-06-23 14:00:00,
2013-06-23 10:20:00,84.9,38.1,30.17,NNE,22,0.0,0.0,19,0.00,,SKC,0.00,VWS V14.00,2013-06-23 14:20:00,
2013-06-23 10:41:00,86.9,39.7,30.16,East,90,0.0,0.0,19,0.00,,SKC,0.00,VWS V14.00,2013-06-23 14:41:00,
2013-06-23 11:00:00,89.1,41.5,30.16,NNE,22,0.0,0.0,19,0.00,,SKC,0.00,VWS V14.00,2013-06-23 15:00:00,
2013-06-23 11:20:00,90.3,42.5,30.16,NNW,338,0.0,0.0,19,0.00,,SKC,0.00,VWS V14.00,2013-06-23 15:20:00,
2013-06-23 11:40:00,93.2,44.9,30.16,NNW,338,0.0,0.0,19,0.00,,SKC,0.00,VWS V14.00,2013-06-23 15:40:00,
2013-06-23 12:20:00,100.9,51.2,30.15,North,0,0.0,0.0,19,0.00,,SKC,0.00,VWS V14.00,2013-06-23 16:20:00,
2013-06-23 12:40:00,104.0,53.6,30.14,SSW,202,0.0,3.4,19,0.00,,SKC,0.00,VWS V14.00,2013-06-23 16:40:00,
2013-06-23 13:20:00,119.5,66.1,30.13,South,180,0.0,5.8,19,0.00,,SKC,0.00,VWS V14.00,2013-06-23 17:20:00,
2013-06-23 13:40:00,132.6,76.7,30.12,SSE,158,0.0,3.8,19,0.00,,SKC,0.00,VWS V14.00,2013-06-23 17:40:00,
2013-06-23 14:01:00,126.3,71.7,30.11,SSE,158,0.0,4.0,19,0.00,,SKC,0.00,VWS V14.00,2013-06-23 18:01:00,
2013-06-23 14:20:00,108.1,57.0,30.10,SSE,158,0.0,3.6,19,0.00,,SKC,0.00,VWS V14.00,2013-06-23 18:20:00,
2013-06-23 14:40:00,111.0,59.3,30.10,SE,135,0.0,4.5,19,0.00,,SKC,0.00,VWS V14.00,2013-06-23 18:40:00,
2013-06-23 15:20:00,110.7,59.0,30.08,ENE,68,0.0,0.0,19,0.00,,SKC,0.00,VWS V14.00,2013-06-23 19:20:00,
2013-06-23 15:40:00,99.1,49.7,30.07,SE,135,0.0,3.1,19,0.00,,SKC,0.00,VWS V14.00,2013-06-23 19:40:00,
2013-06-23 16:20:00,90.1,42.4,30.07,South,180,0.0,5.4,19,0.00,,SKC,0.00,VWS V14.00,2013-06-23 20:20:00,
2013-06-23 16:40:00,90.3,42.5,30.07,SE,135,0.0,1.8,19,0.00,,SKC,0.00,VWS V14.00,2013-06-23 20:40:00,
2013-06-23 17:01:00,89.8,42.1,30.07,NE,45,0.0,0.0,19,0.00,,SKC,0.00,VWS V14.00,2013-06-23 21:01:00,
2013-06-23 17:20:00,88.2,40.8,30.07,SSE,158,0.0,2.2,19,0.00,,SKC,0.00,VWS V14.00,2013-06-23 21:20:00,
2013-06-23 17:40:00,88.9,41.3,30.07,SE,135,0.0,0.0,19,0.00,,SKC,0.00,VWS V14.00,2013-06-23 21:40:00,
2013-06-23 18:20:00,86.5,39.4,30.05,SSE,158,0.0,0.0,19,0.00,,SKC,0.00,VWS V14.00,2013-06-23 22:20:00,
2013-06-23 18:40:00,87.4,40.2,30.05,SSE,158,0.0,0.0,19,0.00,,SKC,0.00,VWS V14.00,2013-06-23 22:40:00,
2013-06-23 19:01:00,93.2,44.9,30.05,SE,135,0.0,0.0,19,0.00,,SKC,0.00,VWS V14.00,2013-06-23 23:01:00,
2013-06-23 19:20:00,88.7,41.2,30.05,ESE,112,0.0,0.0,19,0.00,,SKC,0.00,VWS V14.00,2013-06-23 23:20:00,
2013-06-23 19:40:00,86.7,39.6,30.05,ESE,112,0.0,0.0,19,0.00,,SKC,0.00,VWS V14.00,2013-06-23 23:40:00,
2013-06-23 20:00:00,83.5,36.9,30.06,ESE,112,0.0,0.0,19,0.00,,SKC,0.00,VWS V14.00,2013-06-24 00:00:00,
2013-06-23 20:20:00,82.8,36.3,30.06,ESE,112,0.0,0.0,19,0.00,,SKC,0.00,VWS V14.00,2013-06-24 00:20:00,
2013-06-23 20:40:00,80.2,34.3,30.06,ESE,112,0.0,0.0,19,0.00,,SKC,0.00,VWS V14.00,2013-06-24 00:40:00,
2013-06-23 21:00:00,77.7,32.2,30.07,ESE,112,0.0,0.0,19,0.00,,SKC,0.00,VWS V14.00,2013-06-24 01:00:00,
2013-06-23 21:20:00,75.7,30.6,30.07,ESE,112,0.0,0.0,19,0.00,,SKC,0.00,VWS V14.00,2013-06-24 01:20:00,
2013-06-23 21:40:00,71.2,26.9,30.07,ESE,112,0.0,0.0,19,0.00,,SKC,0.00,VWS V14.00,2013-06-24 01:40:00,
2013-06-23 22:00:00,67.5,23.8,30.09,ESE,112,0.0,0.0,19,0.00,,SKC,0.00,VWS V14.00,2013-06-24 02:00:00,
2013-06-23 22:21:00,76.1,30.9,30.10,ESE,112,0.0,0.0,19,0.00,,SKC,0.00,VWS V14.00,2013-06-24 02:21:00,
2013-06-23 22:40:00,81.5,35.3,30.10,ESE,112,0.0,0.0,19,0.00,,SKC,0.00,VWS V14.00,2013-06-24 02:40:00,
2013-06-23 23:00:00,83.1,36.6,30.10,ESE,112,0.0,0.0,19,0.00,,SKC,0.00,VWS V14.00,2013-06-24 03:00:00,
2013-06-23 23:20:00,84.2,37.5,30.12,ESE,112,0.0,0.0,19,0.00,,SKC,0.00,VWS V14.00,2013-06-24 03:20:00,
2013-06-23 23:40:00,84.0,37.4,30.13,ESE,112,0.0,0.0,19,0.00,,SKC,0.00,VWS V14.00,2013-06-24 03:40:00,